{"data":{"norad_id":40086,"epoch":"2026-05-25T03:42:51.194880Z","epoch_age_seconds":58725,"freshness":"FRESH","line1":"1 40086U 14040A   26145.15475920  .00000188  00000+0  75934-4 0  9996","line2":"2 40086  47.0019 200.3808 0000916 162.6306 197.4611 14.58815408630981","mean_motion":14.58815408,"eccentricity":9.16e-5,"inclination_deg":47.0019,"raan_deg":200.3808,"arg_perigee_deg":162.6306,"mean_anomaly_deg":197.4611,"bstar":7.5934e-5,"rev_number":63098,"period_min":98.710226948741,"perigee_km":696.3534339089,"apogee_km":697.64959928514,"semimajor_km":7075.138516597,"source":"CELESTRAK","updated_at":"2026-05-25T13:38:22.864502Z"}}